Uploader - adam014

Uploader to miejsce na przechowywanie plików Twojej twórczości, którymi chcesz podzielić się na GMCLANie.

Zajęte: 70.01 MB (70%)
Najnowsze pliki graficzne w tym folderze (max. 12):
Plik Pobrań Rozmiar Data uploadu
Adobe_Certified_Professional_Exp.png Podgląd 109 9.43 KB 06.11.2021 18:15:44
Adobe_Certified_Expert_Experienc.png Podgląd 108 7.91 KB 06.11.2021 18:15:32
Zrzut_ekranu_2020_03_6_o_17_57_1.png Podgląd 95 588.47 KB 06.03.2020 17:59:57
n.gif Podgląd 126 1.11 MB 30.12.2017 09:36:08
a.gif Podgląd 128 66.79 KB 29.12.2017 13:07:38
bieeda.png Podgląd 101 95.51 KB 10.07.2017 19:10:03
teren22.gif Podgląd 108 677.90 KB 09.07.2017 14:13:00
teren2.gif Podgląd 102 94.31 KB 01.07.2017 17:52:14
teren.gif Podgląd 105 491.41 KB 02.06.2017 15:57:09
KnockOutLITE_YXY.zip 100 4.40 MB 22.04.2015 21:33:26
HELL_YXY2015.zip 103 9.29 MB 22.04.2015 20:56:47
scr1.jpg Podgląd 108 202.02 KB 22.04.2015 20:46:36
Untitled_1.jpg Podgląd 99 96.38 KB 05.04.2015 20:11:06
Inverted_YXY2015_adam014.rar 100 3.24 MB 01.03.2015 17:05:02
screen2.jpg Podgląd 107 199.91 KB 01.03.2015 16:58:56
screen1.jpg Podgląd 103 117.02 KB 01.03.2015 16:58:44
kinetic.jpg Podgląd 104 224.50 KB 25.08.2014 16:09:53
gmc_avatar.png Podgląd 107 15.21 KB 16.05.2014 18:57:38
sygnab53e5.png Podgląd 101 126.22 KB 14.05.2014 21:56:21
arenaa333.jpg Podgląd 105 1.27 MB 01.04.2014 12:22:38
new_logo2.png Podgląd 103 5.40 KB 01.04.2014 12:22:38
Obrazek_1.png Podgląd 96 922.38 KB 01.04.2014 12:22:38
pauzapl.jpg Podgląd 103 42.48 KB 01.04.2014 12:22:37
ucieczka.rar 99 1.20 MB 01.04.2014 12:22:37
gadzet.jpg Podgląd 98 124.54 KB 01.04.2014 12:22:35
knockout2.jpg Podgląd 107 148.64 KB 01.04.2014 12:22:35
knockout1.jpg Podgląd 103 177.71 KB 01.04.2014 12:22:35
haye.png Podgląd 109 37.95 KB 01.04.2014 12:22:34
nanowarelogo.png Podgląd 92 23.73 KB 01.04.2014 12:22:34
mordeczki.png Podgląd 98 44.64 KB 01.04.2014 12:22:34
edytor.jpg Podgląd 101 188.79 KB 01.04.2014 12:22:34
quick_battle.jpg Podgląd 106 84.10 KB 01.04.2014 12:22:33
shil_boxing.png Podgląd 104 54.85 KB 01.04.2014 12:22:33
kliczko_test.gif Podgląd 96 123.62 KB 01.04.2014 12:22:33
kliczko.png Podgląd 103 90.98 KB 01.04.2014 12:22:33
ytplay.png Podgląd 95 41.43 KB 01.04.2014 12:22:32
logo.jpg Podgląd 106 39.58 KB 01.04.2014 12:22:32
logo_2012.png Podgląd 94 8.81 KB 01.04.2014 12:22:32
szubienica2012_test.jpg Podgląd 106 90.93 KB 01.04.2014 12:22:32
gadget.jpg Podgląd 100 12.75 KB 01.04.2014 12:22:32
pulpit2.png Podgląd 99 151.61 KB 01.04.2014 12:22:32
scrolled_text.gm81 110 3.37 KB 01.04.2014 12:22:32
konew.jpg Podgląd 112 118.81 KB 01.04.2014 12:22:32
pulpit1.png Podgląd 98 250.09 KB 01.04.2014 12:22:32
sygna.jpg Podgląd 103 11.17 KB 01.04.2014 12:22:31
fotelszefa.jpg Podgląd 94 63.20 KB 01.04.2014 12:22:31
dev_screen3.png Podgląd 102 307.55 KB 01.04.2014 12:22:31
2.jpg Podgląd 117 77.66 KB 01.04.2014 12:22:31
gra_html5.rar 97 128.97 KB 01.04.2014 12:22:31
1.jpg Podgląd 114 66.90 KB 01.04.2014 12:22:31
lights.jpg Podgląd 100 54.84 KB 01.04.2014 12:22:31
ko_devscreen1.jpg Podgląd 99 76.93 KB 01.04.2014 12:22:31
splash.jpg Podgląd 104 48.43 KB 01.04.2014 12:22:31
ceg_y.rar 101 1.04 MB 01.04.2014 12:22:30
pulpet1.jpg Podgląd 94 168.54 KB 01.04.2014 12:22:30
okladki.rar 101 3.78 MB 01.04.2014 12:22:30
zrzutekranu.png Podgląd 96 1.70 MB 01.04.2014 12:22:27
lol.png Podgląd 112 127.99 KB 01.04.2014 12:22:26
xscorch02_beta1.rar 95 7.05 MB 01.04.2014 12:22:26
myfile.gif Podgląd 106 277.14 KB 01.04.2014 12:22:23
ots3D.rar 99 1.76 MB 01.04.2014 12:22:22
market_example.gm6 101 11.51 KB 01.04.2014 12:22:21
x.rar 123 1.25 MB 01.04.2014 12:22:21
scr1.png Podgląd 103 3.39 KB 01.04.2014 12:22:20
pl_sic.png Podgląd 107 1.30 KB 01.04.2014 12:22:20
x_pas.rar 103 1.03 MB 01.04.2014 12:22:20
smoke.gm6 103 4.38 KB 01.04.2014 12:22:20
menu.png Podgląd 104 324.44 KB 01.04.2014 12:22:20
zrecznosciowkaengine2.gm6 106 7.90 KB 01.04.2014 12:22:20
licznik.rar 101 2.17 KB 01.04.2014 12:22:20
zrecznosciowkaengine.gm6 106 7.67 KB 01.04.2014 12:22:19
screen1.png Podgląd 109 550.61 KB 01.04.2014 12:22:19
scr_menu.png Podgląd 102 596.57 KB 01.04.2014 12:22:19
madman_demo_v0_2.rar 98 1.29 MB 01.04.2014 12:22:18
uploader.png Podgląd 99 27.97 KB 01.04.2014 12:22:17
pleag_scr1.png Podgląd 101 16.60 KB 01.04.2014 12:22:17
screen2.png Podgląd 98 686.03 KB 01.04.2014 12:22:17
logo_c.png Podgląd 100 418.23 KB 01.04.2014 12:22:17
halflife.gm6 104 5.80 KB 01.04.2014 12:22:17
robaki_nowe.rar 102 1.29 MB 01.04.2014 12:22:16
almora.png Podgląd 101 1.86 MB 01.04.2014 12:22:15
pl2_screen2.png Podgląd 99 2.42 KB 01.04.2014 12:22:15
odswierzacz.rar 97 947.97 KB 01.04.2014 12:22:14
onthespeedv5.rar 98 5.03 MB 01.04.2014 12:22:14
hak.rar 109 966.16 KB 01.04.2014 12:22:10
xrp.zip 101 708.72 KB 01.04.2014 12:22:10
przezroczystosc.gm6 103 51.64 KB 01.04.2014 12:22:09
loading.gif Podgląd 97 2.74 KB 01.04.2014 12:22:09
madman2_update1.rar 101 930.62 KB 01.04.2014 12:22:09
health.rar 117 1.64 KB 01.04.2014 12:22:09
pleag_ub.png Podgląd 98 15.15 KB 01.04.2014 12:22:09
hockey.rar 106 1.06 MB 01.04.2014 12:22:08
odsw_03_beta.rar 100 903.61 KB 01.04.2014 12:22:07
MadMan2_full1_1.rar 96 941.45 KB 01.04.2014 12:22:06
zrzut_ekranu1.png Podgląd 102 672.26 KB 01.04.2014 12:22:06
tuba.png Podgląd 100 33.02 KB 01.04.2014 12:22:05
sygna_binary.png Podgląd 101 43.21 KB 01.04.2014 12:22:05
teren.gm6 104 8.90 KB 01.04.2014 12:22:05
sig.png Podgląd 105 83.94 KB 01.04.2014 12:22:05
inventory.png Podgląd 96 156.63 KB 01.04.2014 12:22:05
scr2.png Podgląd 100 31.92 KB 01.04.2014 12:22:05
original.png Podgląd 104 1.92 KB 01.04.2014 12:22:05
xscorch.rar 99 1.10 MB 01.04.2014 12:22:04
zegar.gm6 106 5.18 KB 01.04.2014 12:22:04
sygna.png Podgląd 108 53.94 KB 01.04.2014 12:22:04
pl2_screen1.png Podgląd 99 2.72 KB 01.04.2014 12:22:04
mon.png Podgląd 120 3.47 KB 01.04.2014 12:22:04
samochod.gm6 99 7.32 KB 01.04.2014 12:22:04
bounceeffect.gm6 94 7.50 KB 01.04.2014 12:22:03
clown_down.rar 108 0.96 MB 01.04.2014 12:22:03
patch_17_1.txt 98 73.00 B 01.04.2014 12:22:03
Pulpit311.png Podgląd 104 201.37 KB 01.04.2014 12:22:03
cd.rar 117 966.09 KB 01.04.2014 12:22:02
version.txt 98 88.00 B 01.04.2014 12:22:02
pleag_scr2.png Podgląd 97 10.47 KB 01.04.2014 12:22:02
obracanie.gm6 97 5.71 KB 01.04.2014 12:22:02
pl2_screen3.png Podgląd 100 3.79 KB 01.04.2014 12:22:01
71f52816d1.gm6 105 8.89 KB 01.04.2014 12:22:00
szablon.png Podgląd 106 149.00 B 01.04.2014 12:22:00
no_name.rar 101 1.03 MB 01.04.2014 12:22:00
sloty.gm6 104 5.30 KB 01.04.2014 12:22:00
optymalizacja.rar 100 2.48 KB 01.04.2014 12:22:00
gmc.jpg Podgląd 109 11.56 KB 01.04.2014 12:21:59
przyklad_rozdzielczosc.gm6 95 5.91 KB 01.04.2014 12:21:59
patrzenie.gm6 98 4.98 KB 01.04.2014 12:21:59
hakv2.rar 105 963.29 KB 01.04.2014 12:21:58
parkour2.png Podgląd 105 1.39 KB 01.04.2014 12:21:57
pleag_0_38b.rar 100 40.95 KB 01.04.2014 12:21:57
kolor.gm6 101 6.85 KB 01.04.2014 12:21:57
70 MB / 100MB

Najnowsze wersje GameMakera:

Stabilna
2024.06.2.162 • 2024.6.1.208
wydana  dziś
LTS
2022.0.2.51 • 2022.0.2.49
wydana 272 dni temu
Beta
2024.600.0.585 • 2024.600.0.609
wydana 18 dni temu
= IDE, = Runtime
Użytkownicy online
2 użytkowników aktywnych:
gości: 1, userów: 1
 Adriann
(~ostatnie 15 minut)
Discord
53 użytkownicy online na discordzie:
Kysiu, s..., Alice, Nitro Slav, Carl-bot, skorydośpiewu, EchoDuck, p..., LadyLush, Grela, Wielki Druid, m..., TobiasM (Morgo), Kowu, Kuzyn, OdrzuconyKrakers, HappyOrange, Tival, fervi, DungeonFairy🧚, Sevitaus, Kalor, PhysX ᴺⱽᴵᴰᴵᴬ, debil debilowski, lethian, Arrekin, MagnusArias, yazaa, Domeen0, Dyno, Moho, Morro, LeD, ZYGZAK, Miłosz, ArturG, sutikku, 21Lancz, 🧁Cupcake🧁, Voytec, Ulti, m..., bagno, Danieo, l..., Add92, Alkapivo, Krzysiek1250, Shockah, Kandif, Cosplyfanka, PeekoHiko, xVANiLL
Shoutbox
gnysek (11:36, 08.07.24)
Ale w sumie taki numer GG był bezpieczniejszy niż nr. telefonu czy kontakt społecznościowy. Utrudniał stalkowanie i ułatwiał banowanie.
Wojo (08:08, 08.07.24)
Niestety to już nie te czasy kiedy pytało się kasjerki o wiek i numer Gadu-Gadu...
Adriann (08:28, 05.07.24)
Albo okraść :|
Adriann (08:28, 05.07.24)
Może pani chciała zobaczyć twoje dane i Cię poderwać :d
gnysek (10:38, 03.07.24)
Mnie ostatnio w Żabce zapytali o wiek. A mam już ponad dwie osiemnastki.
Wojo (08:27, 30.06.24)
Ogólnie to miał być żart ponieważ portal internetowy, którego można opisać jako PH jest portalem przeznaczonym dla dorosłych. Miało być śmiesznie wyszło żenująco, a wiadomości w shoutboxie nie mogę skasować :P
Wojo (09:40, 28.06.24)
Tymon jak co wizytę musiałem potwierdzić wiek
gnysek (14:15, 17.06.24)
Bo Łapusz woli alkohol, niż się organizować. Co tam Pixel Heaven, sprawdźcie jego zbiórki na książki...
Adriann (21:02, 13.06.24)
Bardzo słusznie, straszna patola z tą organizacją :D
I am Lord (08:35, 13.06.24)
Ale co jak co, zrobiło się o imprezie głośno.
Starsze wpisy znajdziesz w Archiwum.
Ankieta
Ile zarobiłeś do tej pory na grach stworzonych w GM?